{"data":{"norad_id":67115,"intl_designator":"2025-299P","name":"STARLINK-35892","alt_names":[],"object_type":"PAYLOAD","status":"ACTIVE","operator":null,"country":"US","launch_date":"2025-12-15","launch_site_code":"AFETR","launch_vehicle":null,"mission":null,"orbit_class":"UNKNOWN","rcs_meters":null,"size_class":null,"mass_kg":null,"dimensions":null,"purposes":["comms"],"wikipedia_slug":null,"has_3d_model":false,"image_url":null,"decayed_at":null,"tle_current":{"epoch":"2026-05-25T03:46:32.523168Z","epoch_age_seconds":68211,"freshness":"FRESH","line1":"1 67115U 25299P   26145.15732087  .00018312  00000+0  67298-3 0  9997","line2":"2 67115  43.0002  96.9102 0000952 252.2009 107.8739 15.27595603 24817","mean_motion":15.27595603,"eccentricity":9.52e-5,"inclination_deg":43.0002,"raan_deg":96.9102,"arg_perigee_deg":252.2009,"mean_anomaly_deg":107.8739,"bstar":0.00067298,"rev_number":2481,"period_min":94.265785864533,"perigee_km":482.34919497364,"apogee_km":483.65555591072,"semimajor_km":6861.1393754422,"source":"CELESTRAK","updated_at":"2026-05-25T13:38:21.475532Z"}}}